Location: Unspecified
(0.0000°N, 0.0000°E)
Time: 05:39:10
(UTC+00:00)

KAITUO 1B - Pass Details

Date: 04 July 2020
Orbit: 493 x 515 km, 97.4° (Epoch: 13 August)

Event Time Altitude Azimuth Distance (km) Brightness Sun altitude
Rises 18:40:35 0° 195° (SSW) 2,589 ? -8.3°
Reaches altitude 10° 18:43:09 10° 215° (SW) 1,707 ? -8.9°
Maximum altitude 18:45:42 18° 259° (W) 1,287 ? -9.5°
Drops below altitude 10° 18:48:15 10° 303° (WNW) 1,710 ? -10.1°
Sets 18:50:51 0° 322° (NW) 2,596 ? -10.6°
